Wind_Speed
42 45 47 49 50 52 56 57 58 59 58 58 57 59 60 61 61 58 59 60 58 62 68 65 61 55 51 47 45 43 41 39 39 37 35 35 34 34 35 35 34 34 35 36 37 39 39 41 43 46 50 52 54 55
46 47 48 50 52 53 54 55 56 57 57 58 60 62 61 60 59 62 63 61 60 68 66 62 59 56 51 48 45 42 41 37 38 38 38 36 36 36 36 36 35 36 36 38 40 41 42 44 47 50 51 54 56 57
53 52 51 53 52 53 55 57 59 62 64 65 64 60 60 60 62 61 63 60 63 70 65 62 57 53 49 47 45 41 40 40 41 41 38 37 37 37 36 38 39 40 42 43 44 46 47 50 52 53 53 54 56 59
58 59 59 61 62 59 57 60 62 63 64 59 59 57 57 61 61 61 55 58 68 66 60 62 58 54 49 47 46 43 42 41 42 40 38 38 38 37 37 38 41 42 43 45 46 48 49 49 49 52 56 60 64 68
63 61 62 63 61 56 56 58 58 57 53 53 53 55 59 59 60 57 54 61 69 69 62 57 57 55 49 48 47 43 40 41 42 42 41 40 39 39 39 40 42 44 44 46 47 49 51 55 57 61 65 68 71 73
58 55 53 50 49 48 47 53 55 49 47 48 53 57 58 58 57 57 61 63 67 70 65 56 54 55 50 48 48 44 41 40 42 43 43 41 43 43 43 45 48 49 50 52 53 55 57 60 64 69 71 74 76 79
49 47 45 43 46 50 49 47 51 50 50 49 54 56 54 52 51 59 64 58 60 66 62 56 54 52 49 49 47 45 43 42 43 43 44 46 48 49 49 51 56 55 56 57 59 62 65 69 70 72 76 78 80 83
45 43 39 37 38 41 42 47 50 50 51 53 56 53 51 53 53 62 61 59 54 55 57 53 52 50 49 49 48 46 45 46 46 46 48 50 52 53 54 59 60 61 62 64 66 70 72 73 76 79 81 83 86 90
45 43 39 38 40 42 44 43 47 49 49 51 50 49 48 47 50 59 58 58 56 49 48 52 55 54 50 49 48 49 49 49 50 49 50 52 54 57 61 64 66 67 68 71 75 77 77 80 81 83 86 90 94 95
39 36 36 35 39 45 46 47 49 49 49 48 47 44 48 51 48 51 55 53 58 51 49 50 53 53 55 54 53 52 51 50 49 52 54 54 57 63 64 65 66 70 74 77 78 79 80 82 86 91 94 94 96 97
41 40 38 38 41 44 46 51 52 51 49 49 45 46 48 48 48 52 56 54 56 57 55 53 52 56 57 57 56 54 53 53 52 55 58 59 62 67 69 71 74 75 75 77 78 81 86 91 93 94 95 96 98 99
42 39 37 37 41 46 50 51 51 50 49 50 47 44 42 41 44 51 55 56 55 56 61 61 57 56 57 56 55 54 54 54 53 58 61 62 69 73 73 72 73 75 77 82 88 91 92 94 95 96 98 99 100 102
41 43 39 38 39 46 52 52 51 50 47 49 49 45 39 36 43 53 55 58 58 57 57 59 60 60 59 60 59 57 56 57 61 62 65 69 71 71 72 74 77 82 86 90 92 94 95 97 97 98 100 103 105 108
42 46 45 43 46 48 53 55 51 49 46 46 43 41 38 33 42 52 56 60 60 59 57 56 56 57 59 60 60 62 63 64 63 66 70 72 73 76 79 83 86 89 92 93 94 95 95 97 100 103 105 109 112 115
44 45 47 49 50 50 50 50 47 45 45 47 43 40 39 38 38 44 54 57 59 63 62 59 59 59 59 60 61 62 64 66 69 73 76 78 81 85 88 89 89 91 91 92 94 96 98 101 105 108 111 114 117 119
48 48 51 52 52 49 47 46 46 47 45 45 45 43 43 44 45 45 45 48 55 61 63 65 65 65 66 68 70 74 75 75 76 77 78 79 80 81 83 85 87 90 92 95 98 102 106 108 111 114 116 118 118 118
53 54 52 54 50 47 47 45 45 46 47 48 49 48 47 46 45 44 45 47 48 51 53 55 58 60 62 64 66 67 68 70 72 74 77 79 82 85 88 90 93 96 101 103 106 107 108 111 114 114 115 116 115 113
57 54 55 56 53 51 50 50 51 53 52 52 51 51 51 49 49 49 49 50 51 52 54 57 59 61 64 66 68 70 72 74 76 79 82 85 89 92 95 98 99 102 105 106 107 109 110 111 113 113 113 112 112 112
58 58 59 57 57 56 57 55 53 53 54 55 54 53 54 56 57 58 59 59 60 61 62 65 66 69 70 71 74 77 79 82 83 84 87 90 92 94 96 99 102 105 106 107 109 110 109 110 112 113 113 111 109 107
60 61 61 59 59 58 57 57 56 55 54 56 57 57 58 58 59 60 62 64 64 66 68 70 72 74 77 78 79 82 83 84 87 90 94 96 97 99 100 102 103 104 106 106 105 108 110 112 112 110 106 103 101 97
58 60 64 63 61 60 61 61 60 59 59 61 61 62 63 64 65 66 66 65 67 69 71 74 76 77 78 80 83 84 86 87 89 94 96 95 94 96 97 98 99 101 103 106 108 110 110 107 103 101 97 94 88 85
54 57 60 61 63 63 62 62 63 66 65 63 62 62 63 64 64 65 66 67 69 71 73 75 78 81 83 84 84 85 87 87 88 91 94 95 97 97 98 100 101 103 104 104 103 101 99 96 94 89 85 82 80 77
48 49 51 52 53 54 56 56 58 59 61 62 63 63 63 64 66 69 69 70 71 73 74 77 79 80 81 83 85 87 88 90 92 94 95 96 97 98 98 98 98 97 95 95 94 93 90 86 82 80 78 77 74 72
47 48 49 51 52 53 54 55 56 57 58 59 60 61 62 63 64 65 67 70 72 73 76 78 79 81 82 85 88 90 92 93 93 95 94 93 91 90 90 90 89 89 88 87 84 82 80 77 75 74 72 71 69 66
50 51 53 54 54 56 57 59 59 60 61 62 63 63 64 64 66 67 70 72 73 76 77 79 82 84 85 86 88 89 87 87 86 86 86 85 85 85 85 84 82 80 79 78 77 74 72 71 69 68 66 65 64 62
54 56 57 58 59 60 60 62 63 63 64 64 65 67 68 70 71 72 74 75 77 78 79 79 78 78 79 79 79 79 80 81 80 81 81 80 78 76 75 75 74 73 71 70 70 69 67 66 64 63 62 61 60 58
53 55 57 58 59 61 61 63 64 66 68 69 69 69 68 69 69 69 70 69 69 70 70 71 72 73 74 74 75 76 76 75 74 72 70 69 69 69 69 68 66 66 65 65 64 63 63 62 61 60 59 57 57 56
44 46 47 46 48 49 51 52 53 54 55 55 56 57 57 57 60 62 62 64 64 65 67 68 69 71 71 71 70 69 68 66 65 65 64 64 64 64 63 63 61 61 60 59 59 58 58 58 57 56 55 56 55 55
44 45 46 48 48 48 49 50 50 50 51 52 53 54 55 55 58 60 61 62 62 62 62 62 63 63 62 62 62 62 62 62 61 60 60 60 59 58 58 57 57 57 56 55 56 55 54 54 54 54 54 54 53 52
41 41 43 44 45 46 47 47 48 48 48 49 49 50 51 51 52 53 54 54 54 55 56 56 57 57 57 57 57 57 56 56 56 56 56 55 55 54 54 54 54 54 54 53 51 50 51 51 51 51 51 50 49 49
36 37 38 39 40 41 41 42 42 43 43 43 43 44 44 45 46 47 48 49 50 51 51 51 51 52 52 52 52 52 53 52 53 53 52 52 52 52 52 52 51 51 50 49 50 49 48 48 47 47 47 47 47 47
33 34 35 36 37 37 38 38 39 39 40 41 41 41 41 41 41 42 43 45 45 46 46 47 48 48 48 48 49 49 49 50 50 49 49 49 48 48 48 48 48 48 48 48 47 47 46 46 46 45 44 44 44 44
30 31 31 32 33 34 34 34 35 36 36 36 35 35 36 39 41 42 43 43 43 43 44 44 45 45 45 46 46 46 46 46 46 47 47 47 46 46 46 46 46 46 47 46 46 46 46 45 45 44 44 44 43 41
Wind_Direction
149 153 155 159 161 161 163 165 164 167 167 165 171 181 182 180 179 177 182 185 187 188 189 191 193 194 196 199 199 201 207 210 212 217 222 226 231 234 236 241 244 249 253 256 260 262 265 269 274 276 279 282 283 286
142 147 151 154 156 157 157 158 159 159 161 169 176 180 180 177 179 179 182 186 188 187 189 192 193 195 200 199 201 204 211 213 216 220 226 230 234 239 243 247 251 255 257 261 265 269 270 273 275 275 279 282 284 288
139 142 144 145 146 147 150 154 159 165 170 174 176 179 180 177 178 181 184 186 186 186 190 192 194 198 199 200 202 206 214 216 221 226 230 233 237 242 248 253 256 259 262 265 269 271 273 274 276 280 283 286 289 291
140 140 141 142 143 149 154 161 167 170 173 176 177 175 176 176 179 184 187 187 187 188 191 197 199 201 202 203 205 209 217 220 225 230 233 237 242 249 254 259 263 265 268 269 272 275 278 281 284 285 286 287 288 290
141 140 142 147 151 155 161 165 168 171 174 173 172 176 176 179 182 185 190 189 191 192 194 197 200 203 204 205 208 212 218 223 227 232 236 241 247 252 258 264 268 270 273 275 277 280 280 282 284 285 287 289 291 294
140 144 148 152 158 164 167 173 174 171 169 173 178 177 179 183 185 189 189 192 195 194 197 201 204 206 208 209 212 217 222 226 232 235 239 244 251 255 261 267 271 272 272 271 272 274 277 281 284 286 288 293 294 295
148 151 160 163 168 173 176 170 171 170 174 178 181 180 183 186 190 191 194 195 197 198 202 208 209 209 211 213 216 220 226 230 233 236 241 245 250 254 257 261 265 268 270 273 276 279 281 282 287 291 292 292 292 294
159 161 160 172 173 171 172 173 175 177 177 180 182 183 187 192 194 195 197 196 195 200 206 209 211 216 217 217 221 225 230 234 237 240 244 248 252 256 261 264 267 270 272 276 279 279 281 285 287 290 291 293 294 296
165 170 173 178 172 172 175 179 178 178 179 182 184 188 194 199 199 199 201 203 199 206 210 213 216 220 222 226 229 231 234 237 240 245 249 254 259 262 265 268 271 273 276 276 277 281 284 287 289 290 293 295 297 298
173 180 186 182 178 176 181 182 180 178 180 185 190 195 197 199 205 204 202 202 204 208 211 216 220 225 228 231 234 238 242 244 246 249 253 258 263 266 267 269 272 273 275 278 282 283 285 288 290 293 295 296 297 297
181 183 186 179 180 181 182 185 184 182 184 187 193 198 202 205 208 208 207 209 210 214 217 221 224 225 226 233 238 243 248 251 253 258 261 262 265 266 268 271 275 278 280 281 284 286 288 291 293 294 295 295 296 297
189 188 192 184 183 183 184 183 184 189 192 192 197 201 205 213 215 212 212 214 217 221 224 226 229 230 233 237 241 245 248 250 253 257 261 263 264 266 271 276 278 280 282 284 287 289 290 291 292 293 294 295 296 297
195 196 194 191 188 185 187 187 191 193 199 200 197 202 207 215 219 217 215 217 221 223 225 229 233 237 241 244 247 248 251 253 256 260 263 265 269 273 274 276 278 281 284 286 288 289 290 291 293 293 294 295 296 297
193 194 196 192 189 188 191 195 197 200 203 206 205 208 211 214 221 222 223 223 223 226 228 231 236 240 245 249 252 254 257 260 263 265 265 269 272 274 276 278 280 282 284 285 286 287 289 290 291 292 294 296 298 299
193 193 191 188 189 193 197 201 203 204 208 213 217 218 216 219 225 230 232 232 232 234 236 240 241 245 248 252 256 258 260 263 265 267 271 272 273 274 277 279 280 281 282 284 285 287 288 289 292 296 296 295 296 298
194 193 191 193 194 197 201 205 209 212 211 214 213 215 216 221 226 229 232 235 238 240 243 246 249 251 254 256 259 262 265 266 267 269 270 271 273 275 276 277 279 281 283 285 286 288 290 293 294 294 295 297 298 299
197 197 198 195 195 198 199 203 207 210 213 214 217 222 225 226 229 233 236 238 240 242 246 250 254 256 257 260 261 264 266 268 269 269 271 272 274 275 277 279 281 283 284 287 289 290 292 292 294 296 296 297 298 300
199 201 201 202 204 207 209 211 216 218 219 223 226 228 229 231 233 235 238 241 244 247 250 251 254 256 258 260 264 268 270 272 273 274 275 276 277 278 279 281 283 284 286 288 291 291 293 294 295 298 297 299 301 302
205 207 208 210 211 213 215 218 222 225 228 231 233 236 238 240 242 244 247 250 252 255 256 258 260 262 264 266 269 271 273 274 275 276 278 279 280 282 283 284 285 287 288 289 291 292 294 296 296 298 299 301 302 302
212 213 215 218 219 220 223 226 228 230 233 236 239 242 245 249 252 254 255 256 258 260 261 264 266 269 270 271 272 274 275 275 277 278 279 280 281 282 283 284 285 286 288 290 293 294 296 297 297 298 299 300 300 302
218 219 221 224 226 229 231 234 237 239 241 243 245 246 249 251 254 257 259 259 259 260 262 264 266 268 271 272 272 273 274 277 278 280 282 282 283 283 284 286 287 290 292 293 293 294 295 295 296 298 299 301 302 303
223 224 226 229 233 236 237 238 239 241 244 246 249 251 252 253 255 257 258 260 261 264 265 266 267 268 271 272 273 274 276 278 278 278 281 283 285 287 289 289 291 291 291 292 293 292 293 295 297 300 302 302 302 302
229 230 232 234 236 236 238 240 241 243 245 248 250 252 254 256 258 260 261 262 262 263 264 266 268 271 273 274 275 276 277 277 279 281 284 286 287 287 288 289 289 290 290 290 291 293 296 299 301 301 301 301 302 303
231 233 234 236 238 241 243 246 247 249 250 251 252 254 256 257 259 261 263 265 267 268 269 270 272 273 273 273 275 278 280 281 282 284 285 285 287 287 288 289 289 288 289 291 293 296 299 300 300 300 301 302 303 304
232 235 236 238 239 241 244 245 247 249 250 252 254 257 260 262 264 265 265 266 268 270 272 272 273 273 275 277 279 280 281 283 283 284 285 286 287 287 288 289 289 291 293 295 297 298 298 299 300 301 302 303 304 305
234 238 240 240 243 246 248 249 251 253 255 257 258 260 261 263 265 265 267 268 269 271 272 273 275 277 278 279 280 280 281 281 282 283 285 286 287 287 288 290 292 295 296 296 297 299 300 301 302 303 304 304 305 305
244 245 245 244 246 249 251 253 254 255 256 257 259 261 263 264 266 268 270 271 272 274 275 276 277 277 278 278 280 281 282 283 284 285 287 288 289 291 292 293 294 294 295 297 299 300 300 302 303 304 305 305 305 306
257 258 259 259 260 260 261 261 262 262 262 263 264 266 268 269 271 271 273 273 273 273 274 275 276 277 279 280 282 283 286 288 289 289 290 290 291 291 291 293 295 296 298 299 299 300 302 302 303 304 304 305 307 308
255 257 259 259 260 261 262 263 263 263 264 265 267 269 270 270 270 271 272 272 274 275 276 277 278 280 282 284 285 286 286 287 287 287 288 290 292 293 295 296 297 298 299 300 301 302 302 303 304 305 306 307 308 309
252 253 254 256 258 260 261 262 263 264 266 268 269 269 270 270 271 272 273 275 276 277 278 279 281 281 282 283 284 285 287 288 290 292 292 294 296 297 298 299 299 300 300 301 301 302 303 304 305 306 307 308 309 310
257 259 261 262 263 265 266 267 268 269 270 271 272 273 274 275 277 277 277 277 277 278 279 280 282 284 285 287 288 289 291 293 294 295 297 298 298 299 299 299 299 300 301 302 303 304 304 306 306 307 308 309 310 311
256 258 260 263 265 268 271 274 275 276 275 275 276 276 277 279 279 279 279 280 282 284 285 285 286 287 289 290 291 293 294 295 295 296 297 297 298 299 299 299 301 301 303 304 305 306 308 309 310 310 310 310 310 310
265 268 270 272 272 273 275 276 279 279 279 280 282 284 284 283 282 283 284 286 286 287 288 289 290 292 293 293 294 294 295 296 296 297 298 298 299 300 301 302 304 305 306 307 308 309 310 310 310 310 310 310 310 310
Height
10141 10150 10164 10177 10189 10201 10216 10231 10246 10262 10277 10292 10308 10322 10337 10350 10363 10375 10389 10401 10413 10425 10436 10448 10460 10470 10478 10484 10491 10497 10503 10509 10514 10520 10524 10528 10530 10532 10534 10536 10538 10540 10539 10538 10538 10537 10539 10537 10536 10532 10528 10524 10521 10518
10151 10161 10172 10185 10199 10212 10226 10241 10254 10268 10282 10296 10311 10324 10338 10351 10361 10372 10385 10397 10409 10422 10435 10445 10455 10462 10471 10480 10486 10492 10498 10506 10510 10514 10517 10521 10523 10525 10526 10528 10529 10530 10530 10528 10528 10527 10529 10527 10523 10520 10517 10513 10509 10504
10165 10175 10187 10199 10211 10223 10235 10247 10261 10274 10287 10299 10313 10326 10339 10348 10359 10370 10382 10394 10406 10419 10430 10441 10451 10459 10467 10475 10481 10488 10492 10497 10501 10505 10511 10514 10516 10517 10519 10519 10520 10520 10519 10520 10517 10515 10515 10513 10511 10508 10504 10499 10494 10489
10183 10192 10202 10213 10225 10237 10248 10259 10269 10280 10292 10304 10317 10328 10338 10349 10360 10373 10384 10395 10406 10418 10429 10439 10447 10455 10462 10469 10475 10481 10485 10490 10495 10499 10503 10506 10507 10509 10509 10510 10509 10509 10509 10508 10506 10503 10501 10499 10497 10493 10489 10485 10479 10473
10198 10207 10217 10227 10237 10246 10255 10265 10275 10286 10298 10310 10319 10330 10341 10351 10362 10374 10385 10394 10403 10415 10426 10435 10442 10449 10457 10463 10469 10474 10479 10484 10488 10491 10494 10497 10498 10499 10500 10500 10499 10498 10497 10496 10493 10490 10488 10484 10482 10478 10473 10468 10462 10457
10212 10220 10228 10237 10245 10253 10261 10270 10281 10292 10303 10313 10322 10331 10341 10352 10363 10371 10382 10390 10399 10412 10421 10431 10438 10445 10452 10457 10462 10467 10472 10476 10480 10483 10486 10488 10488 10490 10491 10489 10486 10485 10484 10482 10480 10477 10475 10472 10467 10462 10457 10451 10444 10437
10222 10229 10236 10243 10250 10256 10265 10275 10284 10296 10306 10316 10326 10334 10344 10356 10365 10374 10381 10392 10401 10411 10419 10427 10433 10441 10446 10451 10455 10459 10463 10467 10471 10474 10476 10476 10477 10478 10478 10475 10469 10470 10470 10468 10466 10463 10460 10454 10452 10446 10439 10432 10425 10417
10229 10237 10244 10249 10256 10264 10271 10278 10288 10299 10307 10317 10326 10337 10347 10355 10364 10372 10382 10391 10400 10408 10415 10423 10432 10436 10440 10444 10448 10452 10455 10459 10462 10464 10465 10465 10466 10465 10464 10457 10457 10457 10456 10453 10451 10447 10442 10439 10433 10427 10420 10413 10405 10397
10236 10242 10246 10252 10260 10268 10276 10283 10292 10301 10311 10321 10331 10340 10348 10356 10365 10372 10381 10389 10398 10407 10414 10419 10423 10427 10434 10437 10441 10444 10446 10450 10452 10455 10454 10455 10454 10451 10447 10444 10443 10441 10441 10438 10433 10429 10424 10420 10414 10407 10400 10392 10384 10374
10240 10245 10250 10257 10264 10272 10279 10286 10295 10305 10315 10324 10334 10342 10349 10356 10363 10371 10379 10386 10395 10400 10405 10410 10416 10421 10425 10427 10431 10435 10438 10440 10443 10443 10443 10445 10441 10433 10431 10429 10427 10426 10423 10419 10416 10411 10405 10400 10393 10386 10378 10369 10361 10352
10241 10246 10252 10259 10267 10274 10281 10289 10298 10308 10316 10326 10333 10339 10347 10355 10362 10368 10376 10382 10388 10392 10396 10400 10405 10410 10413 10417 10421 10426 10428 10430 10433 10431 10429 10429 10425 10417 10415 10414 10413 10410 10406 10402 10397 10391 10384 10377 10370 10362 10354 10345 10337 10328
10242 10248 10254 10262 10268 10276 10283 10292 10300 10308 10316 10324 10332 10339 10346 10352 10358 10365 10370 10375 10380 10383 10387 10392 10396 10401 10405 10407 10411 10413 10414 10417 10420 10416 10414 10416 10405 10401 10403 10401 10397 10391 10386 10381 10375 10369 10362 10354 10346 10338 10330 10322 10313 10304
10242 10248 10254 10261 10269 10277 10286 10294 10300 10308 10315 10322 10329 10336 10343 10350 10356 10359 10363 10367 10370 10374 10380 10385 10388 10391 10394 10397 10399 10400 10403 10405 10402 10404 10401 10394 10390 10391 10389 10383 10378 10372 10366 10359 10353 10346 10338 10331 10323 10314 10305 10297 10288 10278
10240 10246 10253 10260 10268 10276 10284 10291 10299 10307 10315 10321 10328 10334 10340 10345 10347 10349 10354 10358 10363 10368 10371 10375 10378 10382 10383 10386 10389 10388 10391 10390 10390 10386 10382 10380 10378 10374 10370 10365 10359 10353 10346 10339 10331 10323 10317 10310 10301 10292 10283 10273 10263 10252
10238 10245 10252 10258 10266 10274 10281 10289 10296 10304 10310 10318 10324 10330 10333 10335 10337 10342 10347 10351 10355 10359 10362 10365 10368 10370 10371 10373 10374 10373 10373 10374 10373 10369 10366 10362 10358 10354 10350 10345 10339 10332 10325 10318 10311 10304 10296 10288 10279 10270 10258 10246 10234 10222
10238 10244 10251 10258 10265 10273 10280 10287 10294 10300 10305 10311 10316 10318 10321 10325 10328 10332 10335 10339 10343 10347 10350 10352 10353 10355 10355 10357 10357 10355 10356 10356 10353 10350 10346 10342 10337 10332 10327 10322 10317 10310 10303 10297 10289 10281 10273 10264 10254 10243 10231 10219 10206 10194
10235 10241 10248 10255 10262 10269 10276 10282 10287 10292 10298 10302 10305 10309 10313 10317 10320 10323 10326 10329 10332 10334 10336 10337 10338 10339 10340 10340 10339 10338 10337 10335 10333 10330 10326 10322 10316 10311 10306 10301 10294 10287 10279 10271 10264 10255 10246 10235 10225 10214 10202 10190 10178 10167
10232 10239 10246 10252 10258 10263 10268 10273 10278 10283 10288 10292 10297 10300 10304 10307 10310 10313 10316 10317 10320 10322 10323 10323 10323 10323 10323 10322 10321 10320 10316 10314 10311 10308 10303 10298 10293 10287 10281 10275 10269 10260 10252 10244 10236 10227 10218 10207 10196 10186 10174 10162 10151 10140
10227 10233 10239 10245 10250 10255 10260 10264 10269 10274 10279 10283 10286 10289 10292 10295 10298 10301 10302 10303 10305 10305 10306 10305 10306 10304 10305 10304 10301 10298 10295 10291 10287 10283 10278 10272 10267 10261 10254 10247 10240 10234 10225 10217 10208 10199 10190 10180 10168 10157 10146 10135 10124 10114
10219 10225 10231 10237 10242 10246 10250 10254 10259 10263 10267 10271 10274 10277 10280 10282 10284 10285 10286 10287 10287 10287 10287 10286 10286 10284 10282 10280 10277 10274 10270 10267 10263 10258 10252 10246 10241 10234 10229 10222 10215 10207 10199 10191 10182 10172 10162 10152 10140 10130 10120 10111 10101 10091
10210 10215 10221 10226 10230 10235 10239 10244 10247 10251 10255 10258 10260 10263 10265 10267 10267 10268 10268 10268 10267 10267 10267 10266 10264 10262 10260 10257 10254 10249 10247 10243 10239 10235 10228 10221 10215 10208 10202 10195 10189 10181 10173 10163 10154 10144 10134 10124 10115 10106 10096 10086 10075 10067
10200 10206 10211 10216 10219 10224 10228 10231 10234 10237 10239 10242 10245 10247 10248 10249 10250 10250 10250 10249 10248 10248 10247 10245 10242 10240 10237 10234 10231 10228 10224 10220 10215 10208 10202 10196 10190 10184 10177 10170 10162 10154 10146 10137 10128 10118 10109 10100 10091 10082 10073 10062 10053 10044
10189 10194 10198 10203 10207 10211 10213 10216 10219 10221 10223 10225 10226 10227 10228 10229 10230 10230 10231 10229 10228 10226 10225 10223 10221 10218 10215 10211 10207 10202 10198 10194 10189 10183 10177 10173 10167 10160 10153 10144 10136 10128 10120 10111 10102 10093 10084 10075 10067 10059 10049 10040 10032 10023
10177 10181 10184 10187 10190 10193 10196 10198 10200 10203 10205 10207 10207 10208 10210 10211 10212 10212 10210 10208 10206 10204 10203 10201 10198 10195 10191 10186 10181 10177 10171 10167 10163 10158 10152 10146 10139 10132 10125 10118 10110 10102 10094 10086 10078 10070 10062 10053 10045 10038 10029 10019 10012 10004
10164 10166 10170 10173 10176 10179 10180 10182 10183 10185 10187 10187 10188 10189 10190 10191 10191 10191 10188 10187 10185 10182 10179 10176 10173 10169 10165 10161 10157 10154 10148 10142 10136 10130 10124 10118 10112 10106 10099 10092 10085 10077 10069 10062 10055 10048 10040 10032 10025 10017 10010 10001 9993 9986
10149 10150 10153 10157 10159 10161 10163 10164 10165 10166 10167 10169 10169 10170 10170 10171 10170 10168 10165 10165 10162 10159 10156 10153 10150 10145 10141 10136 10131 10127 10122 10116 10111 10105 10100 10094 10088 10082 10075 10068 10062 10054 10048 10040 10032 10025 10018 10011 10004 9997 9991 9984 9976 9968
10134 10136 10138 10140 10143 10145 10146 10147 10148 10149 10150 10150 10151 10151 10152 10150 10149 10146 10143 10142 10139 10136 10133 10129 10125 10120 10115 10111 10106 10101 10097 10092 10087 10082 10076 10071 10065 10059 10053 10047 10042 10035 10028 10021 10014 10006 9999 9992 9986 9979 9972 9966 9959 9951
10119 10120 10122 10124 10126 10128 10129 10130 10130 10130 10131 10130 10131 10129 10130 10129 10126 10121 10120 10118 10116 10113 10109 10105 10101 10097 10092 10088 10083 10078 10073 10069 10064 10060 10055 10050 10045 10039 10033 10028 10021 10015 10009 10002 9995 9989 9983 9975 9969 9963 9956 9949 9942 9935
10103 10104 10105 10106 10108 10109 10110 10109 10109 10109 10108 10108 10108 10107 10106 10105 10103 10100 10097 10095 10093 10090 10086 10083 10079 10075 10071 10067 10062 10058 10054 10049 10044 10040 10036 10030 10025 10019 10014 10008 10001 9995 9990 9985 9979 9972 9966 9960 9953 9946 9939 9932 9925 9919
10087 10089 10090 10090 10090 10091 10091 10092 10091 10091 10090 10089 10089 10088 10087 10085 10083 10080 10078 10075 10073 10070 10067 10063 10060 10057 10053 10049 10044 10040 10035 10030 10026 10021 10015 10010 10006 10001 9995 9990 9984 9978 9973 9968 9963 9958 9951 9945 9938 9931 9924 9918 9911 9905
10074 10074 10075 10075 10075 10075 10075 10075 10074 10073 10073 10072 10071 10070 10068 10067 10066 10064 10061 10058 10055 10052 10049 10046 10043 10039 10034 10030 10026 10021 10016 10012 10007 10002 9997 9992 9988 9983 9978 9973 9967 9962 9957 9952 9947 9941 9935 9930 9924 9918 9912 9905 9898 9892
10062 10061 10061 10061 10061 10061 10060 10060 10059 10059 10058 10057 10056 10055 10054 10052 10049 10046 10044 10040 10037 10035 10031 10028 10024 10021 10017 10013 10008 10004 10000 9995 9991 9986 9982 9977 9973 9967 9963 9957 9952 9947 9941 9936 9930 9925 9919 9913 9908 9903 9898 9892 9887 9881
10050 10050 10050 10049 10048 10048 10047 10046 10045 10043 10042 10041 10041 10040 10038 10035 10032 10029 10026 10023 10021 10018 10014 10011 10007 10004 10000 9997 9993 9989 9985 9980 9975 9971 9966 9962 9957 9952 9947 9942 9937 9931 9926 9920 9915 9909 9904 9899 9894 9889 9884 9879 9874 9869